Regional Weather Roundup
Issued by NWS Wakefield, VA

Home | Current Version | Previous Version | Text Only | Print | Product List | Glossary Off
Versions: 1 2 3 4 5 6 7 8 9 10 11 12 13 14 15 16 17 18 19 20 21 22 23 24 25 26 27 28 29 30 31 32 33 34 35 36 37 38 39 40 41 42 43 44 45 46 47 48 49 50

000
ASUS41 KAKQ 272310
RWRAKQ

REGIONAL WEATHER ROUNDUP
NATIONAL WEATHER SERVICE WAKEFIELD VA
600 PM EST THU NOV 27 2014

Note: "fair" indicates few or no clouds below 12,000 feet with no
significant weather and/or obstructions to visibility. * = Denotes
station may not report precipitation (e.g., rain,snow,etc.),
thunder or fog.

VAZ042-051-052>054-056-280000-
NORTHERN VIRGINIA

CITY           SKY/WX    TMP DP  RH WIND       PRES   REMARKS
WASH NATIONAL  MOCLDY    42  28  57 W8        30.12R
DULLES         MOCLDY    36  28  73 W9        30.11R
FORT BELVOIR   CLOUDY    40  29  63 NW8       30.13R
QUANTICO       CLOUDY    41  30  65 NW10      30.14R
FREDERICKSBRG* CLOUDY    42  32  67 NW8       30.12R
STAFFORD*      PTCLDY    38  30  74 CALM      30.17R
WARRENTON      MOCLDY    38  35  89 NW5       30.12R
CULPEPER*      MOCLDY    41  28  60 NW5       30.13R
MANASSAS*      CLOUDY    39  34  81 W9        30.12
LEESBURG*      PTCLDY    36  32  87 NW7       30.12R
WINCHESTER     PTCLDY    37  27  65 W8G21     30.11R
FRONT ROYAL*   CLOUDY    36  28  75 W3        30.11R
LURAY*         CLOUDY    37  30  75 W5        30.12R
$$

VAZ048-049-060>072-079>083-280000-
CENTRAL AND SOUTH CENTRAL VIRGINIA

CITY           SKY/WX    TMP DP  RH WIND       PRES   REMARKS
RICHMOND       MOCLDY    40  36  86 CALM      30.11R
CHESTERFIELD*  CLOUDY    39  27  60 NW3       30.12R
PETERSBURG*    CLOUDY    43  37  80 CALM      30.12R
HANOVER        PTCLDY    36  34  92 CALM      30.13R FOG
TAPPAHANNOCK*  CLEAR     36  33  90 W3        30.12R
QUINTON*       PTCLDY    37  37  99 CALM      30.11R
CHARLOTTSVILLE CLOUDY    40  23  50 NW10      30.13R
GORDONSVILLE*  CLOUDY    41  26  54 N3        30.13R
ORANGE*        CLOUDY    41  30  65 W7        30.14R
LOUISA*        CLOUDY    41  28  60 NW7       30.11R
BUMPASS*       CLOUDY    39  36  88 NE3       30.12R
FARMVILLE*     CLOUDY    42  31  67 CALM      30.13R
CREWE*         CLOUDY    39  38  95 CALM      30.12R
FORT PICKETT*  CLOUDY    38  38  98 CALM      30.12R
CHASE CITY*    CLEAR     40  34  79 NW5       30.14R
CLARKSVILLE*   CLEAR     39  30  70 W7        30.13R
SOUTH HILL*    CLOUDY    40  37  89 CALM      30.18R
LAWRENCEVILLE* CLOUDY    39  37  93 CALM      30.11R
$$

VAZ088>098-280000-
SOUTHEAST VIRGINIA

CITY           SKY/WX    TMP DP  RH WIND       PRES   REMARKS
NORFOLK        CLOUDY    43  36  76 N8        30.09R
VIRGINIA BEACH CLOUDY    44  38  79 N14       30.08R
NORFOLK NAVAL  PTCLDY    43  37  79 NW9       30.11R
WEST POINT*    PTCLDY    38  34  85 CALM      30.13R
SALUDA*        FAIR      39  35  84 NW3       30.10R
NEWPORT NEWS   CLEAR     40  36  86 NW3       30.10R
LANGLEY AFB    PTCLDY    39  39 100 NW5       30.11R
FORT EUSTIS    CLEAR     40  38  93 N5        30.09R
WILLIAMSBURG*  CLEAR     39  37  93 NW5       30.12R
HR EXEC AP*    CLOUDY    41  37  87 N5        30.13R
FRANKLIN*      CLOUDY    39  39 100 CALM      30.12R
WAKEFIELD      MOCLDY    41  37  86 N3        30.11R
$$

VAZ020-022-025-037-045-280000-
WEST CENTRAL AND SOUTHWEST VIRGINIA

CITY           SKY/WX    TMP DP  RH WIND       PRES   REMARKS
STAUNTON*      PTCLDY    35  21  57 W8        30.15R
WAYNESBORO*    CLOUDY    34  24  68 NW8       30.12R
HOT SPRINGS VA FLURRIES  23  20  88 W14       30.00R WCI  11
LYNCHBURG      MOCLDY    37  22  54 NW7       30.16R
DANVILLE       CLOUDY    42  25  50 NW12G21   30.17R
SOUTH BOSTON*  PTCLDY    40  26  57 NW12      30.16R
MARTINSVILLE   CLOUDY    39  26  61 NW8       30.21R
ROANOKE        CLOUDY    36  22  56 NW9       30.19R
BLACKSBURG     FLURRIES  32  27  80 NW15G22   30.17R WCI  22
DUBLIN*        CLOUDY    33  25  74 NW22G28   30.17R WCI  20
MARION*        CLOUDY    31  24  74 W17G35    30.18R WCI  19
HILLSVILLE*    CLOUDY    30  25  81 NW14G24   30.12S WCI  19
RICHLANDS*     FLURRIES  29  24  82 NW7       30.20R
WISE*          CLOUDY    28  27  93 NW9G17    30.24R
ABINGDON*      FLURRIES  32  28  84 N7G16     30.24R
$$

MDZ021>025-VAZ099-100-280000-
SOUTHERN MARYLAND AND THE DELMARVA PENINSULA

CITY           SKY/WX    TMP DP  RH WIND       PRES   REMARKS
PATUXENT RIVER CLEAR     34  31  88 W5        30.09R
BAY BRIDGE APT   N/A     41  28  60 NW8       30.10R
LEONARDTOWN    CLEAR     37  32  81 NW5       30.11R
DOVER          CLEAR     37  29  72 W9        30.05R
GEORGETOWN     CLEAR     39  28  64 CALM      30.08R
EASTON         MOCLDY    39  32  75 N3        30.12R
CAMBRIDGE      MOCLDY    36  32  87 CALM      30.08R
SALISBURY      CLEAR     39  31  72 CALM      30.07R
OCEAN CITY     CLEAR     35  31  85 CALM      30.07R
WALLOPS ISLAND MOCLDY    37  34  89 NW3       30.08R
ACCOMACK*      CLOUDY    41  32  70 N6        30.08R
$$

NCZ012>017-030>032-280000-
NORTH CENTRAL AND EASTERN NORTH CAROLINA

CITY           SKY/WX    TMP DP  RH WIND       PRES   REMARKS
ROANOKE RAPIDS CLOUDY    39  36  87 CALM      30.13R
RALEIGH        PTCLDY    43  33  68 NW6       30.15R
ELIZABETH CITY CLEAR     43  37  79 NW8       30.09R
AHOSKIE*       CLOUDY    42  38  86 CALM      30.12R
EDENTON*       CLEAR     41  38  89 NW5       30.10R
CURRITUCK*     CLEAR     42  37  84 CALM      30.09R
KILL DEVIL HLS CLOUDY    44  39  81 NW6       30.06R
MANTEO         CLOUDY    44  38  80 NW8       30.07R
CAPE HATTERAS  MOCLDY    48  43  82 VRB6      30.05R
TARBORO*       PTCLDY    42  37  83 W5        30.14R
GOLDSBORO      CLEAR     44  41  90 CALM      30.12R
WASHINGTON     CLEAR     42  38  86 CALM      30.12R
GREENVILLE     CLEAR     43  37  81 CALM      30.14R
NEW BERN       CLEAR     45  38  76 NW5       30.13R
WILMINGTON     CLEAR     46  39  76 NW9       30.14R
$$

VAZ048-280000-
ELSEWHERE

CITY           SKY/WX    TMP DP  RH WIND       PRES   REMARKS
HARRISBURG PA  MOCLDY    34  30  85 NW7       30.08R
BALTIMORE      MOCLDY    38  30  73 W5        30.09R
ANNAPOLIS      PTCLDY    41  29  62 NW8       30.10R
ANDREWS AFB    CLOUDY    40  28  60 NW7       30.10R
PHILADELPHIA   PTCLDY    38  27  64 NW7       30.08R
WILDWOOD NJ*   CLEAR     39  27  60 NW8       30.05R
HENDERSON NC   CLEAR     40  31  68 NW7       30.14R
GREENSBORO     PTCLDY    39  24  55 NW13G22   30.18R
ROCKY MOUNT    CLOUDY    44  36  73 NW5       30.14R
$$

VAZ100-280000-
MARINE

STATION/POSITION TIME  TEMP    WIND        PRES    WAVE   SWELL
                       AIR SEA DIR/SP/G            HT/PER HT/PER
                 (UTC) (F)     (DEG/KT/KT) (MB)    (FT/S) (FT/S)
CAPE MAY NJ      2300   41 47  320/ 11/ 18 1017.2S
LEWES DE         2300   42 47  330/ 19/ 23 1017.6R
15NM E FENWICK I 2300   44 54              1017.1R   4/ 8
OCEAN-CITY-INLET 2300   40 49  320/  4/  5 1017.7R
WACHAPREAGUE VA  2300   40 47  330/  2/  5 1018.4R
THOMAS POINT MD  2300   42 47  320/  9/ 11 1020.3R
GOOSES REEF MD   2300   44     350/ 14/ 19 1019.0S
COVE POINT MD    2300   42      20/  5/  7 1018.7R
SOLOMONS ISLAND  2300      49                N/A
BISHOPS HEAD MD  2300   38 45  330/  4/  5 1018.1R
PINEY POINT MD   2300          340/ 19/ 20   N/A
POTOMAC MD       2300   43     320/ 10/ 14 1017.6R
CAMBRIDGE MD     2300   40 45  270/  3/  4 1018.5R
LEWISETTA VA     2300   40 48  300/  5/  5 1018.8R
RAPPAHANNOCK LGT 2300          330/ 15/ 17 1018.9R
STINGRAY PT      2300   42     330/ 10/ 12 1019.3R
YORK RVR RNG VA  2300   41     320/  9/ 10 1018.7R
YORKTOWN VA      2300   42 50  320/  9/ 11 1019.0R
JAMESTOWN VA     2300   40     360/  4/  6   N/A
DOMINION TERM VA 2300   42      10/  2/  5 1019.0R
KIPTOPEKE VA     2300      55   10/  6/  9   N/A
CHES BAY BRIDGE  2300   44 53  340/ 18/ 20 1018.3R
CAPE HENRY VA    2300   44     350/ 21/ 25 1017.2R
CHESAPEAKE LGHT  2200   44     350/ 22/ 25 1017.8R
WILLOUBY STN VA  2300   42     350/ 11/ 12 1017.7R
S CRANEY ISL VA  2300          300/  7/ 11 1019.0R
CAPE HENRY BUOY  2300      56                N/A     4/ 8
1ST LANDING BUOY 2300   45     360/ 19/ 23 1017.9R
CAPE CHARLES BUO 2200      54                N/A     3/ 9   2/ 9
64NM E OF VA BCH 2300   49 62  330/ 23/ 27 1015.8R   5/ 9   3/ 9
DUCK PIER NC     2300   44 54  330/ 17/ 19 1017.1R
44100 DUCK FRF   2300      58                N/A     5/ 9   2/14
44056 DUCK FRF   2200      56                N/A     4/ 9
OREGON INLET NC  2300   45 56  320/ 13/ 19 1017.7R
HATTERAS NC      2300   50 59  340/ 22/ 26 1017.7R
DIAMOND SHLS NC  2300   53     320/ 21/ 27 1016.2R   6/ 9   3/ 9
CAPE LOOKOUT NC  2200   50     330/ 18/ 24 1017.4R
$$



USA.gov is the U.S. government's official web portal to all federal, state and local government web resources and services.